Regional Weather Roundup
Issued by NWS

Home | Current Version | Previous Version | Text Only | Print | Product List | Glossary On
Versions: 1 2 3 4 5 6 7 8 9 10 11 12 13 14 15 16 17 18 19 20 21 22 23 24 25 26 27 28 29 30 31 32 33 34 35 36 37 38 39 40 41 42 43 44 45 46 47 48 49 50
000
ASUS43 KBIS 231259
RWRND

NORTH DAKOTA REGIONAL WEATHER ROUNDUP
NATIONAL WEATHER SERVICE BISMARCK ND
800 AM CDT SAT AUG 23 2014

NOTE: "FAIR" INDICATES FEW OR NO CLOUDS BELOW 12,000 FEET WITH NO
SIGNIFICANT WEATHER AND/OR OBSTRUCTIONS TO VISIBILITY.


NDZ001>003-009>011-017-231400-
NORTHWEST NORTH DAKOTA

CITY           SKY/WX    TMP DP  RH WIND       PRES   REMARKS
WILLISTON      CLOUDY    58  52  80 E16       30.07S
MINOT          CLOUDY    56  53  90 NE12      30.10R
$$

NDZ018>021-031>035-040>046-231400-
SOUTHWEST NORTH DAKOTA

CITY           SKY/WX    TMP DP  RH WIND       PRES   REMARKS
BISMARCK       CLOUDY    61  58  90 NE12      30.02F
GARRISON         N/A     57  56  96 E15       30.05F
HETTINGER ARPT LGT RAIN  61  59  93 E22G31    29.96F
$$

NDZ004>008-012>016-024-026-027-054-231400-
NORTHEAST NORTH DAKOTA

CITY           SKY/WX    TMP DP  RH WIND       PRES   REMARKS
GRAND FORKS    FOG       59  59 100 N12       30.05S VSB 1
GRND FRKS AFB  CLOUDY    59  59 100 NE13      30.06F
DEVILS LAKE    CLOUDY    57  52  82 NE13G20   30.06F
$$

NDZ022-023-025-028>030-036>039-047>053-231400-
SOUTHEAST NORTH DAKOTA

CITY           SKY/WX    TMP DP  RH WIND       PRES   REMARKS
FARGO          FOG       66  65  96 N7        30.00F VSB 1/2
JAMESTOWN      CLOUDY    61  59  94 NE9       30.02F FOG
$$




USA.gov is the U.S. government's official web portal to all federal, state and local government web resources and services.